GFSWCAN_500_spd_195.txt.gz
Wind_Speed
40 39 34 27 30 27 29 30 31 29 33 33 33 29 28 27 34 36 38 40 47 45 36 17 12 16 2 4 9 11 9 8 25 17 15 33 42 43 45 50 48 54 58 62 64 57 61 51 42 36 46 50 46 56
36 36 34 31 25 26 28 30 30 27 31 31 33 31 28 25 31 33 38 42 45 48 40 20 17 7 6 6 13 16 18 14 21 20 5 27 42 36 44 37 40 46 56 57 61 60 60 50 48 44 47 50 50 48
32 34 32 24 21 24 27 28 28 24 29 31 32 34 25 26 28 31 38 44 43 47 44 28 14 10 7 13 14 25 22 22 12 11 27 26 30 37 35 43 38 48 58 62 67 70 59 55 52 49 46 48 51 45
32 33 33 21 20 23 24 26 28 23 26 29 31 34 29 24 25 30 37 42 43 44 44 31 12 10 12 15 16 13 8 18 21 18 16 26 34 34 39 34 40 48 60 60 63 73 62 52 56 52 47 48 53 51
34 34 32 20 20 23 23 24 28 27 24 25 28 30 27 30 23 29 32 41 48 41 42 31 10 14 16 9 5 2 4 18 13 15 12 19 27 25 29 49 43 48 53 46 68 72 71 57 52 56 53 50 51 56
34 32 28 17 20 21 22 24 27 29 27 25 25 28 29 26 23 22 27 35 43 47 40 32 8 10 6 4 2 8 5 3 7 4 6 20 23 22 29 32 41 46 55 52 47 69 71 73 45 50 59 52 52 53
34 30 23 13 18 20 21 23 25 28 29 26 25 23 25 26 23 21 26 33 34 40 48 39 27 9 10 5 6 7 3 3 1 3 6 10 16 14 14 40 34 46 50 67 62 62 70 67 69 51 53 55 50 53
32 25 22 14 16 20 22 23 25 27 28 27 24 22 21 22 22 19 21 29 30 32 35 43 41 24 11 3 3 7 6 9 11 5 7 12 9 6 3 16 24 37 41 48 58 58 64 70 75 72 56 58 53 50
28 24 24 14 13 20 22 24 25 27 28 27 25 21 19 18 20 16 18 22 26 29 31 35 36 39 29 13 7 4 5 4 8 5 6 11 14 16 13 10 29 29 35 35 37 51 56 55 58 69 73 63 44 58
21 24 22 14 14 19 22 23 25 27 27 25 23 20 16 16 16 14 13 15 19 24 28 30 29 30 36 33 16 5 2 3 4 10 4 8 8 10 14 19 10 9 10 13 16 42 47 57 55 62 60 60 62 55
20 24 14 8 15 20 21 23 25 27 25 23 22 20 16 13 13 12 11 11 15 18 23 26 27 24 25 28 30 20 9 3 7 10 8 9 10 10 14 21 20 19 13 15 12 20 43 51 53 58 62 52 62 57
22 16 7 12 17 20 20 24 26 26 24 22 22 19 16 13 12 11 11 10 12 16 18 21 22 21 20 18 19 20 20 16 7 3 7 7 9 9 17 27 25 22 18 14 14 11 22 47 54 58 60 66 45 49
11 7 8 12 16 18 23 24 25 25 25 24 21 15 15 12 11 10 12 14 12 14 16 18 17 17 15 14 15 14 13 14 16 14 7 4 1 2 6 13 20 29 32 30 25 23 21 29 39 56 56 58 64 63
4 7 12 13 17 21 22 23 25 27 28 27 18 11 14 14 13 14 17 16 18 16 14 15 15 14 11 8 7 10 11 11 8 7 8 8 6 5 2 3 3 4 15 32 39 32 40 37 32 38 44 49 53 55
5 10 12 15 18 19 22 23 24 25 26 24 5 5 11 13 12 18 17 14 15 3 11 14 13 13 14 7 5 10 11 10 8 8 7 6 4 1 3 5 5 5 4 5 17 41 49 46 43 42 44 46 50 50
7 10 13 16 17 20 21 21 21 23 24 15 1 21 18 18 17 17 18 14 12 13 16 15 11 8 7 10 16 14 12 11 10 8 9 9 9 10 9 7 8 7 8 8 8 10 24 31 43 55 55 50 48 49
9 11 14 16 18 21 25 20 23 18 18 17 20 22 20 18 15 16 15 18 16 8 7 10 10 10 10 15 14 15 16 15 14 12 11 11 12 12 12 14 14 14 13 13 12 13 14 14 18 21 28 39 52 57
10 13 13 16 18 21 27 13 30 15 23 22 20 18 19 19 17 14 15 9 8 5 4 8 8 8 9 10 10 13 14 14 13 12 12 11 10 11 11 12 12 15 18 17 17 18 20 21 21 21 19 23 31 35
13 14 12 14 18 21 20 21 22 24 21 22 21 19 18 17 16 14 11 10 10 8 6 6 7 9 10 13 16 16 15 16 17 16 15 15 14 14 15 14 14 15 16 17 18 16 20 23 23 25 25 24 24 29
13 12 12 14 17 20 22 21 20 21 20 19 18 16 15 15 15 14 13 12 11 11 11 12 13 13 14 15 16 18 18 18 18 18 18 17 17 17 17 19 19 21 22 20 20 20 21 21 21 23 25 27 28 27
12 12 13 15 17 18 21 21 21 20 19 17 16 14 14 14 14 14 14 14 14 13 13 14 15 14 13 14 15 16 17 17 16 17 18 18 15 16 20 22 22 22 24 26 26 26 26 25 27 26 25 26 29 30
12 13 15 16 17 19 21 22 22 21 17 14 14 14 12 13 13 12 11 13 15 15 14 14 13 13 15 17 17 17 16 17 17 17 21 22 25 26 30 31 31 30 27 31 34 33 31 30 29 32 31 28 30 29
13 15 16 17 18 20 20 20 18 18 17 15 14 14 13 14 14 13 11 10 9 13 16 18 19 21 22 20 22 21 19 23 28 29 27 30 33 37 41 42 42 38 37 38 36 39 39 39 36 33 36 34 34 36
13 16 18 20 18 21 20 13 11 13 10 8 8 13 16 16 18 17 14 15 19 20 24 23 19 20 20 23 28 25 21 27 29 33 37 42 45 45 40 41 42 41 39 36 35 37 39 40 39 38 41 39 38 40
15 15 18 21 18 19 19 21 17 6 21 18 21 15 10 18 20 11 14 12 21 20 21 25 26 31 32 36 35 29 28 38 39 38 36 33 33 33 32 33 36 37 38 37 36 35 36 38 39 40 40 41 41 42
14 17 21 21 21 19 5 5 9 15 23 23 19 20 19 23 27 22 18 15 18 25 31 30 27 32 35 28 38 42 36 32 29 27 25 25 25 27 28 27 28 29 29 29 27 26 25 26 29 31 33 37 38 38
16 17 19 21 10 20 21 19 27 18 28 14 13 22 24 23 24 25 24 23 24 28 31 29 24 24 30 31 30 28 26 26 25 26 27 25 25 25 24 23 25 23 21 20 19 20 20 21 22 24 25 27 28 29
8 9 29 28 19 23 19 22 26 25 22 19 22 23 23 24 25 25 26 25 24 25 24 25 25 25 26 27 27 25 24 24 23 23 24 23 22 21 19 18 21 19 16 16 15 15 15 15 16 17 18 20 22 23
10 12 16 27 15 10 20 19 25 22 22 22 20 21 24 26 27 26 23 21 20 21 22 22 25 27 28 27 25 22 21 21 21 20 20 19 19 19 17 14 16 17 15 13 14 13 13 12 12 12 12 12 14 17
23 23 26 14 17 42 35 24 32 25 21 17 23 24 27 30 31 29 25 23 21 21 22 22 23 23 24 28 25 21 19 18 19 20 20 17 16 17 18 18 16 15 15 15 15 15 15 15 14 13 12 11 10 10
14 18 28 28 29 34 36 30 24 15 15 19 22 23 25 27 28 29 26 25 25 25 25 25 26 26 27 27 26 25 24 23 22 22 23 23 22 21 20 20 20 19 19 19 18 17 16 15 15 15 14 14 13 11
17 18 26 30 24 31 32 27 17 13 18 23 23 19 19 26 26 26 23 23 24 25 27 29 30 30 30 28 27 26 26 26 26 27 27 27 26 26 26 25 25 25 24 24 23 23 22 21 20 19 18 17 15 14
18 25 30 30 15 41 30 23 20 20 23 26 24 20 17 26 24 25 24 26 27 27 28 28 30 31 32 32 33 33 32 31 30 30 29 30 31 31 32 32 31 30 29 28 27 26 26 26 26 26 24 22 20 18

GFSWCAN_500_spd_198.txt.gz
Wind_Speed
44 37 33 33 33 26 23 26 27 30 26 27 28 31 31 27 27 31 40 48 46 45 45 23 9 8 5 2 3 7 3 2 14 23 9 14 39 54 54 59 64 60 60 48 56 61 61 60 48 44 44 46 40 46
42 34 33 32 31 22 22 25 25 28 26 26 27 29 31 30 29 30 38 48 47 47 43 20 13 8 7 7 11 6 10 8 2 14 19 22 33 55 55 54 58 56 54 51 52 56 62 58 50 47 41 46 44 42
38 35 33 32 27 21 22 24 23 26 28 27 26 28 32 29 26 28 36 41 51 48 41 21 21 17 15 9 11 11 11 18 15 22 17 22 34 50 54 51 56 55 46 50 54 58 60 61 56 49 44 43 47 42
36 34 33 30 25 19 21 22 21 24 27 28 26 27 27 29 28 27 33 37 42 51 38 20 22 18 14 11 6 5 7 21 11 27 17 25 28 40 48 52 50 54 50 55 54 61 51 66 54 54 50 45 46 47
34 34 32 29 21 18 19 21 20 23 25 27 27 26 26 26 27 25 28 34 40 45 43 18 17 11 12 8 4 12 5 16 21 27 24 22 27 25 36 40 43 48 51 55 56 55 53 65 51 54 52 49 47 49
35 33 29 25 19 15 17 20 21 23 25 26 26 25 24 23 24 21 24 31 35 40 45 29 16 11 10 11 12 15 3 4 1 18 21 19 17 24 33 30 30 47 45 53 59 53 62 59 58 44 56 54 49 51
35 29 28 22 19 15 16 19 20 22 24 25 26 24 21 20 21 19 22 27 32 34 37 39 25 7 8 9 9 11 10 9 11 15 14 20 17 16 28 38 38 38 46 48 58 50 59 65 72 43 57 55 53 48
32 31 25 22 19 14 17 19 19 21 23 25 25 23 20 17 17 17 17 20 26 31 32 34 36 25 10 11 12 9 6 10 13 9 17 19 18 14 19 28 46 42 46 47 51 55 52 67 80 54 53 57 54 52
32 25 20 21 18 10 16 19 20 22 25 24 22 21 18 15 14 15 12 15 18 24 29 31 31 34 31 17 14 14 12 8 6 8 13 16 18 19 19 14 25 47 37 41 41 60 42 58 59 60 68 54 57 53
26 21 20 21 6 11 16 18 21 23 24 23 20 20 17 14 13 13 12 11 14 18 22 27 27 27 29 31 19 9 10 10 9 3 7 10 11 14 14 6 16 37 25 31 39 51 52 54 59 50 63 65 58 53
24 22 23 8 7 15 16 19 22 23 23 23 21 19 14 12 11 11 12 13 12 14 17 20 23 22 22 24 25 24 19 11 9 1 2 6 5 5 7 11 13 9 8 18 30 34 43 57 63 58 57 64 62 56
22 18 8 6 11 15 18 20 22 24 24 23 19 14 10 9 8 8 10 15 14 12 11 13 16 17 16 17 18 19 19 16 14 13 8 3 4 5 2 5 11 10 6 1 12 24 27 37 51 55 58 69 69 71
16 5 5 10 11 16 18 20 22 22 22 20 17 4 5 9 6 8 15 15 10 13 11 8 10 11 12 10 12 13 13 13 12 12 10 8 4 3 7 1 6 13 15 11 10 11 16 31 39 45 47 53 62 74
2 5 9 10 14 16 19 20 21 21 23 20 16 5 11 14 9 15 17 14 15 14 13 6 9 10 9 6 7 12 11 9 8 8 8 6 6 5 6 5 4 4 5 7 15 20 22 20 28 43 53 51 57 59
3 5 9 12 15 17 19 22 18 22 20 16 11 13 24 16 13 13 12 12 11 10 10 10 9 9 5 1 2 10 10 10 10 9 8 9 8 10 11 8 4 5 5 5 8 14 23 29 27 27 30 48 57 59
3 6 10 11 13 16 21 23 16 18 20 16 16 16 16 16 16 14 16 18 13 10 6 5 8 10 11 6 10 11 9 9 9 10 10 8 7 8 9 13 15 12 10 11 10 10 12 21 32 38 38 41 40 40
5 8 10 11 14 19 21 18 23 11 16 19 17 14 12 13 13 13 13 14 14 8 2 2 7 8 13 13 10 10 9 8 7 7 8 10 11 11 10 11 13 17 20 19 17 16 15 15 16 23 33 44 46 44
7 10 9 11 14 17 20 21 19 18 18 17 16 15 14 14 12 10 9 8 9 8 4 4 6 5 5 6 7 9 12 10 8 9 9 10 11 12 13 14 16 17 15 19 22 23 23 21 21 23 23 27 35 46
9 10 10 11 14 17 18 19 20 18 18 19 17 15 14 14 14 13 10 8 6 6 5 6 8 10 9 10 12 12 12 11 11 13 13 13 13 14 15 17 18 20 19 20 20 22 26 27 28 28 28 29 32 32
9 10 11 13 15 16 17 19 21 22 20 16 15 13 12 11 12 11 9 6 4 4 4 6 8 8 9 11 12 12 12 12 13 14 14 14 16 17 16 16 15 16 16 18 21 22 23 25 27 29 30 31 34 36
8 9 12 13 15 15 16 18 19 18 17 15 14 14 13 11 12 12 6 5 6 6 4 4 5 5 6 10 12 14 15 15 15 16 16 15 15 17 18 20 21 21 23 24 26 28 30 32 31 31 33 34 35 35
8 10 14 15 16 17 17 19 19 18 18 12 11 12 10 9 11 11 10 10 11 12 10 11 14 13 14 16 18 21 23 23 22 24 25 24 25 26 29 32 33 34 35 38 39 42 41 41 39 37 36 34 35 38
9 10 11 12 17 18 19 22 18 17 15 12 11 14 11 13 12 14 14 18 18 17 19 21 19 15 11 14 18 21 26 33 31 25 23 26 33 36 38 39 41 43 46 48 48 47 45 45 44 43 42 41 39 41
9 10 13 16 21 21 25 15 10 13 10 13 8 12 11 15 19 14 12 18 22 23 17 18 13 11 18 25 27 27 34 25 26 34 40 39 36 36 37 38 38 38 38 39 39 40 42 43 45 47 45 45 42 44
13 14 17 16 9 22 16 13 18 20 22 20 14 13 13 14 14 20 19 16 15 22 24 22 16 26 29 28 30 34 33 39 41 35 31 29 28 29 30 30 31 32 32 32 31 31 32 34 37 40 43 45 46 47
15 15 13 14 15 11 14 16 20 24 19 17 14 19 23 23 22 23 21 15 15 17 23 26 27 27 25 27 27 31 28 27 26 25 24 24 24 25 25 25 26 25 25 26 26 24 24 24 25 27 30 32 34 37
12 11 15 21 19 12 28 20 18 19 16 17 16 17 20 22 23 23 21 19 18 19 21 23 25 26 26 24 22 22 23 23 22 21 20 19 19 20 20 22 21 20 22 22 20 18 18 17 18 20 23 25 26 29
11 14 18 18 16 17 27 20 17 9 9 14 19 20 20 22 23 22 22 20 18 18 20 21 22 21 20 20 21 22 22 21 21 21 21 19 16 17 19 18 16 16 19 18 16 14 13 13 12 12 14 17 19 21
13 13 12 11 23 25 24 17 12 12 15 19 20 18 19 24 23 23 24 24 24 24 24 24 25 25 24 22 22 23 23 22 21 21 19 18 16 16 16 16 16 15 14 15 15 14 13 12 11 11 9 8 9 10
25 20 21 29 27 28 19 15 13 16 20 19 17 17 22 23 22 22 23 23 23 24 25 26 27 28 26 25 25 25 25 24 24 24 23 22 22 21 21 20 19 18 17 17 16 15 14 14 13 11 10 10 10 9
24 22 26 27 26 26 17 15 15 20 22 19 17 20 23 23 24 25 25 25 26 28 28 29 29 29 29 28 27 27 27 27 27 27 28 28 28 27 27 25 23 22 21 21 21 21 20 18 16 15 14 13 11 11
17 23 32 28 26 26 26 25 23 23 23 22 20 21 22 25 25 26 26 25 26 27 28 27 28 29 30 32 33 33 32 32 31 30 29 28 29 30 31 32 32 30 28 27 25 24 22 21 21 21 21 21 19 17
21 23 25 24 26 27 27 24 24 23 22 23 24 23 24 25 24 25 25 26 26 26 27 27 28 29 30 31 30 30 30 31 32 33 35 36 37 34 31 30 31 32 33 32 33 34 33 32 30 27 24 24 25 24

GFSWCAN_500_spd_201.txt.gz
Wind_Speed
42 41 41 35 33 31 27 21 21 23 25 27 28 28 29 31 30 31 32 37 42 47 33 26 12 9 8 8 11 6 4 18 24 14 2 12 34 39 41 53 60 64 60 56 52 55 56 55 57 52 49 49 43 45
40 40 35 33 32 30 25 21 21 22 24 26 27 27 27 27 29 29 30 37 43 42 30 23 20 16 16 14 8 14 14 13 32 19 5 22 30 37 39 46 51 54 56 58 56 55 54 53 57 55 45 47 50 46
39 41 31 32 30 28 22 20 21 21 23 26 27 27 27 27 27 27 28 35 40 41 26 22 22 17 15 10 8 20 7 28 22 9 20 10 24 29 41 44 53 51 57 56 50 50 52 46 57 58 48 46 47 48
39 37 30 32 28 25 20 18 20 22 23 24 26 26 26 25 25 24 25 32 36 40 23 16 15 14 11 15 17 16 11 21 15 6 11 21 27 34 40 46 48 53 58 55 54 51 47 54 57 48 54 47 47 49
38 31 31 29 27 22 20 17 20 22 23 23 24 25 25 23 22 20 21 28 35 36 31 13 8 10 9 9 10 9 1 11 25 8 2 10 14 33 36 39 47 50 55 54 52 50 46 52 59 57 53 48 52 53
36 26 29 28 24 20 18 16 19 21 23 23 24 23 22 21 19 18 17 22 30 34 35 27 13 6 5 7 13 8 9 16 23 25 17 14 16 21 32 34 40 48 54 56 51 47 49 48 48 55 46 48 52 53
25 28 28 25 19 20 15 13 17 22 22 23 23 22 20 19 16 17 14 18 23 29 31 32 28 14 8 7 12 16 16 14 19 21 26 15 7 21 27 32 35 37 44 51 51 47 45 49 39 61 39 50 50 56
23 27 25 22 20 20 12 11 18 19 21 23 22 21 19 16 14 14 15 14 19 23 27 27 29 23 16 12 16 13 10 9 14 16 21 16 17 20 25 29 30 31 35 42 51 47 41 46 53 51 56 49 56 57
25 25 22 20 21 13 7 15 17 19 22 23 22 20 18 15 12 13 13 12 13 18 22 24 24 25 22 13 15 15 11 10 6 8 14 17 17 23 24 29 29 26 25 37 42 48 44 46 50 55 49 49 51 54
24 22 19 20 13 4 12 14 19 21 22 23 22 20 17 13 11 11 12 14 14 14 18 20 21 20 22 24 17 9 10 7 7 7 7 10 10 15 19 21 23 30 31 30 41 39 43 45 51 51 59 59 44 58
20 19 20 10 5 11 13 17 19 22 22 22 23 19 13 10 9 8 10 14 17 13 13 14 16 17 16 19 21 20 16 6 3 3 2 3 8 9 10 17 26 24 26 26 30 50 45 44 52 51 56 56 60 47
17 15 6 5 8 12 16 18 20 21 20 20 18 15 6 9 10 8 8 16 15 12 13 9 11 13 13 14 15 15 15 15 14 13 9 1 5 8 13 8 9 11 15 21 26 26 35 40 51 56 57 54 63 62
11 2 3 6 10 13 15 17 19 17 17 21 14 5 14 14 8 8 13 12 13 16 16 14 6 9 10 8 11 12 11 11 11 12 12 9 3 5 11 13 16 14 1 1 11 22 26 28 48 53 50 56 56 65
2 2 4 8 11 12 14 19 14 17 14 13 9 9 13 9 10 11 11 13 13 12 8 6 6 7 7 5 4 12 12 12 10 9 8 7 7 5 4 8 10 11 10 9 11 8 14 23 27 38 40 45 46 57
1 2 6 9 9 11 15 15 14 14 12 16 16 16 15 15 14 14 13 12 10 10 12 5 4 6 11 6 4 11 9 10 11 11 8 6 5 3 2 1 3 6 6 7 12 18 20 13 19 24 34 37 41 40
1 4 7 6 7 11 14 14 19 8 16 18 17 17 15 14 13 13 12 11 10 10 6 6 6 5 12 6 10 7 7 8 8 10 10 6 3 6 3 2 3 2 3 5 9 10 14 21 26 27 24 32 31 37
2 5 5 5 7 11 13 15 13 12 12 14 15 16 15 15 15 13 10 10 11 7 4 5 7 10 10 10 7 5 4 7 8 9 8 10 11 7 6 4 5 5 5 8 9 10 12 14 16 18 30 35 35 37
4 4 5 7 9 12 13 14 15 15 14 14 12 11 11 11 12 13 13 10 7 4 6 6 7 6 6 6 7 8 10 11 11 10 9 12 16 16 16 15 11 10 9 10 12 13 15 15 17 20 22 24 29 38
4 6 7 9 11 12 13 14 16 17 15 15 14 13 13 13 12 13 14 14 10 8 7 9 12 14 14 12 10 10 11 13 14 14 14 13 15 16 15 15 16 17 19 17 16 17 20 20 21 23 24 26 28 30
6 6 8 12 14 15 16 17 17 19 18 16 15 14 14 15 14 13 15 14 13 12 11 12 13 15 15 15 15 13 12 12 13 15 17 18 19 19 19 18 18 19 20 21 21 20 19 21 21 21 23 27 31 32
7 9 11 14 15 16 17 16 18 20 17 19 18 17 18 16 19 15 15 17 18 17 16 16 15 16 16 15 13 17 20 20 19 20 19 20 23 26 26 25 26 27 27 28 28 29 31 31 31 30 27 28 30 32
9 11 13 14 15 19 18 19 18 19 23 24 19 17 22 27 22 18 18 18 19 19 22 23 23 23 22 21 20 17 19 20 19 21 25 29 29 32 36 37 35 35 35 36 37 38 40 42 44 45 45 43 39 39
13 15 16 17 18 18 23 19 11 15 14 16 18 17 22 20 19 26 18 14 16 19 22 25 22 15 17 13 21 26 21 24 29 31 31 32 32 33 36 38 36 37 39 41 44 46 48 49 51 52 53 55 55 52
12 13 16 18 21 21 19 22 18 20 22 15 15 13 17 15 13 11 21 18 17 17 15 11 10 13 14 33 28 25 25 29 29 31 36 42 40 36 34 32 31 32 33 34 36 38 41 44 47 50 52 54 57 57
12 8 7 13 16 14 17 19 20 21 21 14 9 16 18 17 15 16 17 14 7 9 13 16 18 31 28 25 25 27 29 34 35 31 30 31 33 33 31 31 30 30 30 31 32 33 32 31 32 34 36 41 44 46
17 9 12 18 20 16 18 20 17 17 14 15 16 16 18 20 21 20 19 15 12 11 12 15 20 22 24 26 27 25 23 20 19 19 19 21 22 21 20 21 21 22 24 23 22 25 26 25 24 24 25 28 30 33
13 11 16 15 21 20 18 15 13 11 14 14 13 16 19 17 19 17 16 16 15 14 12 13 16 17 17 17 17 18 18 18 17 16 15 15 14 13 14 16 17 16 15 15 17 17 17 16 16 18 19 21 23 25
17 20 23 25 20 12 12 11 10 10 14 15 12 14 19 15 14 14 15 16 16 16 16 17 20 21 23 23 23 22 22 23 23 22 22 21 19 18 16 16 15 15 15 14 14 15 15 14 14 15 15 16 17 18
16 23 25 22 14 9 9 8 10 13 14 13 16 17 16 15 15 16 17 19 20 19 19 18 19 20 21 23 25 26 26 27 27 26 26 24 23 22 21 20 19 18 17 17 16 15 13 13 13 14 14 14 14 14
21 27 26 25 18 14 14 14 16 16 16 17 18 18 19 20 21 21 22 23 23 22 22 25 26 26 26 25 24 24 24 24 24 26 27 27 27 27 27 26 24 22 21 20 20 20 19 19 17 17 16 15 15 14
22 23 27 27 22 20 19 20 21 21 21 21 19 21 24 25 25 25 25 24 24 26 27 27 27 26 26 26 28 28 29 30 31 30 27 25 26 28 29 29 29 30 30 30 29 27 24 23 22 22 22 22 20 18
22 23 25 25 25 25 27 28 25 23 23 24 24 24 24 24 24 24 24 23 24 26 26 26 26 26 25 25 27 27 27 27 28 28 29 31 30 28 26 25 25 25 26 27 28 29 30 31 31 30 29 28 27 25
20 20 22 24 24 25 26 26 25 25 25 25 24 24 24 25 24 23 23 24 25 26 26 26 25 25 26 26 26 26 27 28 27 26 26 26 28 30 31 30 30 31 30 29 28 28 28 27 26 26 26 27 28 29

GFSWCAN_500_spd_207.txt.gz
Wind_Speed
44 44 42 37 36 38 39 26 27 26 22 19 19 22 24 25 26 24 21 20 25 31 16 2 13 11 13 13 17 21 13 9 7 12 16 26 25 25 25 27 35 53 65 65 64 61 56 46 46 47 48 52 49 47
45 46 44 35 35 37 30 25 28 24 22 16 19 21 23 25 24 23 19 18 23 28 25 13 14 12 7 16 15 10 20 11 14 19 24 27 19 17 18 22 31 44 55 54 63 62 57 49 43 45 40 42 47 45
44 49 41 35 34 36 25 26 27 22 20 17 18 22 23 25 23 21 17 18 21 26 27 18 10 9 8 11 12 15 19 18 15 18 16 16 15 16 12 13 23 35 44 51 59 59 57 51 45 43 41 38 36 42
51 51 35 33 35 36 23 28 25 22 20 13 18 23 23 24 22 20 16 17 18 23 26 24 12 8 5 6 12 15 21 18 14 18 13 3 10 13 12 13 26 38 45 51 57 58 57 51 42 41 35 46 40 39
48 48 34 33 32 24 24 27 22 21 16 15 21 22 23 23 21 18 14 15 15 19 24 24 19 6 3 6 6 12 16 11 9 6 16 5 3 6 13 12 29 42 43 49 53 56 54 49 44 41 41 36 47 39
45 36 36 30 28 19 24 23 21 15 11 18 20 22 23 21 19 16 13 14 14 16 20 23 22 9 2 3 7 7 9 6 4 7 8 7 14 12 13 21 30 39 39 42 46 50 49 47 39 36 41 38 42 45
43 35 29 27 15 21 21 19 12 10 17 19 21 22 22 21 17 14 12 12 12 13 16 18 20 9 4 1 3 3 5 3 5 9 8 1 0 9 12 23 33 36 37 38 41 46 45 42 35 36 33 39 44 47
33 35 29 16 18 21 18 8 9 13 17 19 21 22 21 19 17 12 10 9 11 11 12 15 16 14 2 5 5 6 5 5 6 9 10 4 2 7 18 19 30 34 36 38 40 43 47 43 40 37 39 42 40 48
31 39 21 14 19 17 4 7 11 15 18 20 21 22 21 17 12 9 8 7 9 10 11 11 14 13 13 6 10 12 10 6 4 4 6 7 4 6 16 18 18 39 31 41 44 44 48 48 44 43 38 39 43 44
27 19 11 16 17 1 6 9 12 16 20 18 20 18 15 11 12 11 8 8 9 6 10 11 10 11 11 13 7 6 7 7 4 3 3 1 3 11 13 13 23 23 35 38 40 42 47 48 41 38 46 42 42 41
13 8 13 13 2 3 7 10 14 16 14 15 17 15 11 13 14 13 10 9 11 10 14 13 8 7 8 10 10 10 11 11 10 7 3 6 5 3 6 18 19 24 28 34 35 39 40 40 39 37 33 36 35 40
10 12 10 3 1 4 7 11 14 13 14 14 17 14 12 12 13 11 10 6 13 15 14 13 4 4 5 5 10 11 10 9 11 11 9 5 3 4 3 8 16 29 30 31 32 34 36 40 40 39 38 37 37 39
12 8 4 2 2 4 8 11 12 14 12 15 17 16 13 11 10 10 6 16 15 11 8 8 7 6 5 4 5 9 11 9 10 10 9 10 7 8 8 6 11 26 31 32 33 35 35 36 38 39 40 38 41 40
5 6 3 1 2 4 8 10 13 17 14 15 18 16 15 13 12 11 12 12 13 13 11 9 5 5 5 8 5 7 12 11 10 9 10 9 8 7 7 7 4 14 21 24 27 30 32 37 39 41 42 43 42 45
6 4 1 3 3 6 9 10 12 14 16 16 16 16 14 13 11 11 12 13 12 14 15 4 2 4 5 8 4 7 14 11 9 8 6 8 7 6 4 5 7 7 2 12 18 19 22 29 31 33 37 44 46 44
3 1 3 3 5 8 10 14 15 15 17 18 18 17 16 13 13 12 11 13 13 11 8 5 6 8 5 8 11 13 14 9 7 8 7 5 6 7 5 4 4 5 6 7 8 7 8 14 22 31 33 34 41 46
2 3 5 6 8 10 12 15 17 18 19 18 19 18 17 15 15 14 13 12 11 10 8 3 5 10 15 14 9 7 8 8 10 10 9 7 6 5 7 8 7 7 9 9 10 12 12 11 12 15 22 28 29 33
5 7 8 8 9 11 15 16 17 18 18 18 20 20 17 18 17 15 14 13 13 12 10 9 9 11 12 11 13 13 13 12 10 10 10 9 10 10 10 11 12 12 12 13 12 13 14 14 14 14 15 17 19 23
9 9 9 10 11 13 15 16 18 18 17 18 21 24 21 22 24 17 13 16 19 15 12 10 10 10 11 11 11 12 13 13 12 10 10 12 10 11 11 12 12 13 15 16 18 19 19 20 19 19 19 18 19 21
12 11 11 11 13 16 17 17 18 18 22 19 19 22 22 18 20 17 16 17 18 20 18 15 13 13 12 14 15 15 14 13 14 13 15 16 17 18 19 19 19 19 19 20 20 21 22 23 23 25 25 26 27 27
12 12 13 14 16 17 18 17 16 18 15 15 17 15 21 21 17 15 17 13 7 5 9 11 11 12 13 13 12 11 9 10 13 16 19 22 21 21 22 23 24 24 26 26 28 28 28 30 30 30 29 30 31 33
15 15 15 16 15 15 12 17 17 18 20 21 20 17 15 17 19 13 16 14 18 16 7 10 8 7 9 6 6 15 23 22 22 20 23 22 24 26 28 30 31 33 33 33 33 34 37 38 39 39 40 40 40 40
19 19 16 8 11 11 17 18 18 19 18 16 16 16 14 13 14 15 13 12 13 10 12 10 11 11 10 16 19 19 19 19 20 21 22 23 24 25 29 32 34 35 36 37 37 38 41 41 42 43 44 46 49 50
14 16 13 13 17 16 22 24 19 15 11 9 8 11 14 14 12 14 13 12 13 13 13 12 13 15 16 17 18 18 19 19 20 19 19 19 18 17 17 18 18 19 21 24 26 28 29 31 32 33 35 36 37 40
12 12 16 18 21 17 15 14 15 16 12 8 10 15 16 15 12 14 15 12 12 11 11 12 11 13 14 16 17 19 21 22 21 21 21 20 18 16 15 13 12 13 13 15 16 18 19 22 24 26 29 31 34 37
14 17 18 16 17 15 15 14 17 16 14 14 14 16 16 15 13 13 13 12 11 10 11 13 13 13 14 16 16 16 17 18 20 21 23 23 23 21 18 16 14 11 10 10 11 13 14 15 17 19 20 22 23 24
15 14 14 15 15 15 15 16 17 16 16 15 15 16 16 17 18 19 18 17 16 15 14 14 14 15 15 14 14 15 15 16 18 20 21 22 23 25 24 21 18 16 14 13 13 12 11 9 9 11 13 14 15 16
14 14 15 17 16 18 19 19 19 18 19 19 18 19 20 20 20 20 19 19 19 18 18 18 18 17 17 18 17 18 18 18 18 18 18 18 19 19 20 22 24 25 24 22 20 19 18 17 16 15 13 11 10 10
15 16 18 18 19 20 19 19 19 20 22 21 21 22 21 21 20 20 20 19 17 16 15 15 15 15 15 16 17 18 19 20 21 21 21 21 20 21 21 21 20 20 20 20 21 22 23 23 23 23 22 21 19 17
19 19 20 22 24 22 21 22 23 23 22 21 21 22 22 22 21 20 19 19 18 18 18 16 15 15 16 17 18 19 19 19 21 23 23 24 25 25 26 26 25 25 24 24 24 23 23 23 23 23 24 24 24 24
20 21 22 24 23 21 21 22 22 22 22 23 23 24 25 25 25 25 23 23 22 20 18 17 17 17 16 16 18 18 19 20 20 20 20 21 22 24 25 26 26 26 26 26 26 26 25 25 26 26 27 27 27 27
19 19 20 21 21 21 21 22 22 23 23 24 23 23 24 24 25 26 26 26 25 23 22 20 17 16 16 16 17 17 18 18 18 19 18 19 20 21 23 24 24 24 24 25 26 26 26 27 27 27 27 27 27 27
16 16 17 17 18 17 18 19 21 21 22 23 23 23 23 23 23 24 25 27 27 26 24 23 21 18 16 16 15 15 17 17 17 17 18 19 20 21 22 23 25 26 26 26 26 26 26 26 26 26 27 27 27 27

GFSWCAN_500_spd_210.txt.gz
Wind_Speed
38 41 41 41 41 36 33 33 30 23 25 23 18 16 13 20 20 21 18 14 15 18 19 12 20 18 5 8 9 11 17 11 9 8 12 17 15 15 16 23 34 38 50 50 51 49 51 46 43 44 47 51 52 53
44 39 42 47 44 31 28 30 30 24 25 20 20 11 15 19 20 20 16 14 14 17 21 23 17 7 5 6 6 12 16 19 14 17 19 19 15 16 20 24 32 34 42 48 51 54 47 48 41 40 40 40 48 48
43 42 43 50 40 31 28 30 30 25 23 20 15 10 18 19 20 18 15 12 13 15 20 24 18 6 2 6 8 14 15 17 10 14 21 15 9 12 17 20 24 30 37 49 54 57 52 49 46 40 36 38 42 47
43 43 40 43 34 32 29 25 20 25 22 18 8 16 18 19 19 16 13 11 12 14 18 22 18 4 3 4 8 11 16 17 13 16 14 9 5 5 13 17 19 16 28 45 53 57 56 53 49 43 34 34 36 42
41 38 34 36 35 29 27 18 21 22 14 7 14 16 18 19 16 15 11 9 10 11 15 18 16 5 1 1 4 10 15 14 13 13 13 17 10 9 9 3 7 22 17 32 34 54 59 56 50 46 38 36 38 36
39 29 31 36 32 27 16 18 20 11 6 13 16 17 18 17 15 12 8 6 7 8 12 15 14 7 3 3 3 8 13 15 17 17 13 12 10 7 11 11 12 18 24 33 42 44 51 52 49 48 40 37 43 41
33 30 34 28 29 21 15 19 9 5 10 14 16 18 17 15 12 8 6 4 5 7 9 12 13 7 8 7 8 12 14 15 18 19 13 10 8 8 13 12 9 16 30 39 42 40 46 52 46 47 40 42 37 46
31 26 28 29 29 10 13 4 5 8 11 14 16 16 15 11 7 5 4 3 4 5 6 8 10 12 8 9 12 13 17 18 15 15 14 6 3 6 9 3 8 26 41 44 30 46 41 41 46 43 41 39 44 43
30 26 24 24 16 10 2 1 6 9 12 10 12 12 9 7 9 8 7 6 5 4 5 7 8 10 11 13 8 12 16 15 14 12 10 10 8 3 3 9 16 33 22 39 27 44 44 41 41 42 43 40 42 47
23 22 23 17 5 6 2 2 5 9 7 8 10 9 8 12 13 11 6 5 6 5 9 9 7 6 8 9 9 8 11 13 13 11 10 6 10 5 6 5 6 16 16 31 37 40 44 43 42 44 45 48 27 53
25 25 11 2 6 3 1 3 7 7 7 8 9 9 8 11 13 10 6 4 12 11 10 10 5 3 4 6 7 9 11 12 12 12 9 6 4 8 8 8 11 7 17 35 38 40 41 45 44 42 45 41 37 28
11 4 2 10 4 1 2 5 6 8 5 8 10 10 8 8 9 11 7 5 14 12 6 6 3 4 5 5 8 12 13 13 14 13 10 5 3 3 9 9 7 12 12 23 33 45 41 42 43 45 45 40 38 32
11 3 9 4 2 1 3 6 7 10 6 8 10 10 8 7 7 7 7 7 9 8 4 5 5 3 4 5 7 7 10 12 11 12 12 9 6 4 2 8 11 15 18 19 20 30 38 42 43 43 43 42 37 33
5 9 4 2 1 0 3 6 7 9 11 12 13 12 11 9 8 8 7 5 5 7 9 7 3 4 5 4 5 3 8 12 9 9 9 9 11 10 6 4 10 12 17 21 24 27 31 36 38 40 40 41 41 38
7 2 1 2 2 4 6 8 9 10 11 11 11 12 13 11 10 10 8 8 8 8 7 5 4 1 5 6 3 6 9 8 6 6 8 8 8 8 9 7 4 10 15 19 22 24 29 34 37 38 39 40 42 41
1 1 3 3 4 6 8 11 13 13 13 12 12 13 14 12 10 10 10 9 9 8 7 5 6 9 9 7 10 9 7 5 4 7 8 7 6 6 7 8 7 7 4 8 19 21 23 26 29 33 37 41 42 43
3 4 5 6 6 7 9 12 14 15 16 15 14 14 14 13 12 12 12 10 10 9 8 7 9 7 11 13 9 7 8 9 9 7 7 7 7 6 4 6 7 7 4 3 4 4 13 21 24 23 28 36 38 38
7 8 8 8 8 9 12 15 15 15 15 14 14 16 16 20 19 15 15 11 11 8 9 11 12 13 13 11 12 13 12 11 10 10 10 10 10 12 10 10 10 9 9 10 9 9 9 9 10 12 18 24 27 33
9 10 10 10 10 13 14 15 15 15 16 17 17 16 21 22 20 12 9 10 10 6 9 12 14 14 14 15 15 15 14 14 14 15 14 13 14 13 11 14 13 14 14 14 15 16 16 16 15 15 16 16 16 18
11 11 12 12 13 15 17 16 9 10 16 19 18 14 21 24 15 12 8 9 10 8 2 5 9 13 17 18 18 18 17 15 15 16 17 18 18 19 20 18 20 21 21 20 20 20 20 21 22 22 21 21 22 22
10 15 16 14 15 14 12 4 7 8 11 14 16 17 8 16 20 13 14 9 7 17 11 12 12 13 10 7 9 2 5 5 10 15 16 18 21 22 25 26 28 29 30 30 30 28 28 28 27 27 27 27 27 28
12 18 16 14 7 9 14 16 17 19 15 12 10 9 9 11 10 7 7 8 9 9 10 9 6 8 4 7 13 14 11 11 12 14 16 19 24 27 30 32 33 34 34 34 34 34 34 33 33 33 34 34 35 33
13 15 14 12 17 21 19 17 12 10 11 11 12 13 14 14 12 12 9 8 9 9 9 7 3 3 5 7 7 7 9 11 12 13 13 13 15 16 17 18 21 26 31 34 37 38 39 40 40 40 41 43 43 43
12 14 17 17 13 13 11 12 15 13 11 9 9 14 16 11 8 8 8 6 7 9 9 8 8 9 10 10 10 10 11 12 14 15 16 17 16 13 12 12 12 12 14 16 18 20 22 25 29 33 36 38 40 42
14 14 13 14 14 14 12 14 13 12 11 10 11 12 12 10 8 8 8 8 9 8 8 8 9 9 9 9 10 11 13 14 15 16 16 18 20 17 12 11 11 11 10 10 11 14 16 18 19 21 22 26 29 32
12 12 14 16 16 16 16 15 15 15 15 15 16 15 16 16 16 15 14 13 10 9 10 11 11 11 12 13 13 13 13 13 14 14 14 15 17 19 19 16 12 10 10 9 9 8 7 8 11 14 17 20 22 24
13 15 17 18 17 18 18 18 19 18 18 17 17 17 17 17 18 17 17 15 14 14 15 15 16 17 18 17 16 15 15 15 14 14 14 15 16 15 14 16 17 18 17 16 15 14 12 9 7 6 6 8 11 14
14 17 18 18 19 20 21 20 21 22 22 21 21 21 20 20 19 19 18 16 15 14 14 14 14 16 17 17 16 16 16 16 18 19 19 18 18 17 17 16 15 14 14 15 16 17 17 17 16 15 13 11 8 6
16 19 19 20 21 21 21 21 21 21 22 22 22 23 23 22 21 19 18 17 17 17 16 14 15 15 15 15 15 15 16 17 18 18 19 20 21 21 21 20 19 19 19 19 19 19 19 19 19 19 19 18 19 18
16 17 17 18 20 20 20 20 21 21 21 21 21 23 24 25 25 24 23 21 18 16 15 15 14 13 13 14 15 16 16 15 16 17 19 20 21 21 21 21 22 23 23 22 22 22 22 23 23 23 24 24 24 23
16 14 15 17 19 18 19 19 20 20 20 21 22 22 23 24 25 25 24 22 21 20 17 14 13 13 12 13 14 16 17 17 16 16 17 18 20 21 21 21 21 22 23 23 22 22 23 23 24 24 24 24 24 24
16 15 15 16 17 17 18 20 20 21 22 23 23 23 23 23 24 25 25 25 23 21 20 18 15 13 12 11 12 13 15 16 16 15 14 14 16 18 19 21 21 22 22 23 23 23 24 24 24 24 24 25 25 25
13 13 13 13 14 15 16 17 18 19 20 21 22 23 24 23 23 24 24 26 25 24 22 19 17 15 13 12 10 10 11 12 14 15 14 14 15 16 17 19 20 21 21 21 22 22 23 23 24 24 24 25 25 25

GFSWCAN_500_spd_216.txt.gz
Wind_Speed
47 47 42 41 41 45 46 46 39 34 31 27 27 19 16 8 8 11 13 15 15 14 13 14 18 21 18 10 8 7 10 13 15 8 7 2 8 7 17 15 18 35 46 43 44 48 36 36 42 47 48 47 42 54
44 41 43 46 45 46 49 48 36 34 30 26 26 18 6 8 9 12 14 15 13 12 12 13 17 19 9 6 6 6 10 15 18 9 7 6 3 12 22 33 29 27 32 28 29 43 53 43 37 32 43 51 54 47
38 43 48 50 47 47 44 40 32 35 27 22 16 7 5 8 10 13 14 14 12 10 10 11 16 15 4 4 4 10 13 17 14 15 12 9 10 8 4 22 25 38 32 43 41 46 56 55 51 47 33 41 26 45
46 50 51 51 45 39 31 27 33 31 27 18 6 5 6 9 13 13 13 12 9 9 8 10 13 8 5 5 7 12 14 14 14 14 14 14 10 10 11 9 26 29 36 42 51 53 54 57 58 52 51 37 30 33
48 47 46 44 33 32 23 29 31 29 22 5 2 7 8 10 12 11 11 8 7 8 9 8 10 10 8 9 11 11 12 16 19 20 15 12 7 8 6 9 14 28 33 34 46 49 47 47 55 58 53 47 40 31
42 41 42 39 29 23 27 25 28 23 10 3 6 7 10 8 8 7 7 6 7 8 10 7 8 10 9 11 14 15 18 15 18 15 10 8 5 3 9 10 10 24 31 31 31 45 48 50 47 52 52 47 38 32
42 38 36 29 29 29 25 21 22 14 7 4 5 6 7 3 0 2 4 5 5 7 8 6 7 10 10 14 9 10 13 12 13 17 15 11 6 8 3 6 13 16 22 30 34 35 46 46 50 50 48 43 41 36
35 31 30 26 25 23 25 23 15 10 5 4 4 3 4 0 2 4 5 3 3 5 6 6 7 8 9 11 9 9 9 12 11 15 20 12 8 8 9 6 8 23 17 20 28 36 42 42 51 49 50 44 41 38
28 25 24 23 22 21 21 17 11 6 4 6 4 6 5 2 3 3 2 3 0 3 5 6 8 7 6 6 8 9 11 11 14 16 21 15 7 6 7 8 5 12 24 22 29 33 33 38 44 49 46 46 43 38
23 21 20 19 15 18 16 12 5 3 5 5 6 7 7 5 4 3 5 5 1 3 5 7 7 7 6 5 4 9 9 10 13 15 18 15 13 8 6 7 7 7 10 19 17 29 34 38 43 51 45 49 44 43
21 20 19 13 10 9 14 7 4 3 5 6 6 7 7 7 5 4 5 9 9 5 5 5 6 6 5 6 7 6 6 9 12 15 14 11 14 15 9 6 5 4 4 4 18 15 28 38 48 50 43 50 49 45
20 18 8 1 9 7 4 2 2 2 4 6 6 7 7 7 7 7 6 6 9 10 9 9 6 6 8 9 8 7 6 9 12 16 12 13 16 17 16 4 3 2 2 14 18 11 25 38 54 37 41 40 44 46
11 2 6 4 3 3 0 1 2 3 3 4 6 7 7 8 10 10 9 8 8 10 10 10 9 12 13 11 9 8 8 10 12 14 13 13 12 13 14 10 3 2 5 3 5 5 20 40 44 42 44 42 41 43
2 4 1 1 1 3 3 4 5 6 7 8 10 9 8 8 8 8 10 11 11 12 12 14 13 13 12 13 13 12 12 12 13 16 14 12 11 13 13 15 9 1 4 7 9 8 12 12 29 47 53 37 44 46
4 1 2 4 5 6 8 9 9 10 11 12 12 11 11 11 12 12 14 15 16 17 16 18 18 16 15 14 15 16 16 15 14 14 13 13 11 11 14 14 14 9 2 4 8 11 13 16 17 22 25 30 27 30
1 3 5 7 8 10 12 13 13 12 13 14 15 14 13 14 17 16 14 15 18 21 22 22 20 16 15 16 17 20 20 17 16 16 13 14 15 13 11 11 11 12 12 5 9 14 14 14 14 21 23 22 29 30
5 7 9 10 12 14 15 16 15 15 16 16 16 17 18 15 28 20 10 12 12 15 16 17 17 16 17 16 16 19 20 18 18 16 19 18 18 16 14 14 12 11 9 5 9 15 17 18 19 20 20 25 29 30
8 10 12 13 14 16 16 17 17 18 19 21 23 22 22 24 28 28 18 17 16 13 13 14 13 13 13 13 19 20 24 21 19 20 21 22 21 20 21 20 14 14 16 17 10 10 16 20 22 23 25 28 32 34
9 9 11 15 16 16 18 19 20 20 21 24 22 23 14 20 24 25 18 12 12 16 17 19 18 19 21 22 25 26 28 27 25 25 25 25 22 22 23 25 22 21 20 19 19 19 17 15 17 22 26 29 30 32
10 10 15 16 15 12 11 16 13 9 12 10 10 6 5 14 19 19 12 8 9 11 13 15 13 10 9 13 16 21 23 25 24 24 23 20 19 22 24 26 27 26 25 24 23 22 23 23 21 21 20 23 26 23
11 13 13 16 15 13 12 7 9 11 10 7 6 5 5 8 11 11 12 12 11 9 8 9 10 7 9 14 20 23 17 14 12 11 13 14 15 17 19 21 23 26 28 28 29 29 30 27 24 26 26 25 24 23
10 12 13 12 13 13 11 9 8 7 6 5 7 9 10 10 9 7 7 6 6 6 9 9 6 7 8 10 11 11 7 4 4 5 6 6 8 10 12 15 19 24 27 30 32 34 34 34 30 33 33 31 31 30
10 10 11 12 13 12 11 11 13 11 9 11 12 12 11 10 7 6 6 6 6 7 7 6 6 7 6 6 5 5 6 8 8 8 7 7 8 12 15 16 18 18 19 21 23 26 29 29 31 36 39 38 37 37
12 13 12 11 11 13 15 15 16 17 17 16 16 14 13 11 9 7 6 5 4 3 4 5 6 7 8 8 7 7 9 10 10 10 10 12 13 13 12 14 16 13 13 13 14 15 18 21 23 26 30 34 38 40
13 12 14 16 16 18 18 17 17 16 16 15 16 16 14 11 10 10 8 7 6 6 7 7 7 7 6 6 6 7 8 9 9 9 11 12 12 10 10 11 12 13 12 10 9 9 11 12 14 17 21 23 26 30
17 16 17 16 16 15 14 15 15 17 19 19 18 16 15 14 11 9 8 7 7 8 9 8 8 9 9 7 7 8 10 10 11 11 10 10 10 9 9 9 10 11 11 11 12 11 9 7 6 6 8 11 15 18
12 13 13 13 13 14 15 16 17 18 18 19 19 19 17 14 12 10 8 7 6 7 7 7 9 9 8 9 9 9 10 11 12 11 11 12 12 11 10 11 11 11 11 10 10 11 12 12 11 10 7 5 2 3
9 10 11 13 14 15 15 17 17 18 19 19 20 18 17 17 14 12 10 9 7 5 6 7 7 8 10 10 10 12 13 14 15 14 13 13 13 14 15 14 14 15 15 15 16 16 16 16 15 15 15 15 14 13
9 10 11 12 12 13 14 15 16 17 18 19 20 20 19 17 16 15 13 11 10 9 7 6 8 9 10 11 11 12 13 14 16 16 14 14 13 14 15 16 17 16 16 17 18 18 17 17 17 18 18 18 18 16
8 9 9 10 11 13 15 16 17 18 18 18 18 19 20 21 20 18 15 13 12 10 9 7 6 7 8 10 11 11 12 13 13 14 15 16 16 16 16 17 18 19 20 20 21 21 22 21 19 19 20 19 21 21
8 8 9 9 10 12 13 14 16 17 19 20 21 21 20 20 19 22 21 18 14 11 10 9 7 6 6 7 9 11 11 12 12 13 14 15 15 15 16 16 16 18 19 19 19 20 20 20 22 22 22 21 21 20
6 6 7 7 9 10 12 13 15 16 17 17 19 21 22 20 20 20 20 20 19 16 11 10 10 8 6 6 7 8 10 12 12 12 11 12 13 15 15 16 16 18 18 18 18 19 19 19 20 20 20 20 20 20
5 6 7 8 9 11 12 13 13 14 14 15 17 18 20 21 20 19 20 20 20 19 16 12 10 11 9 7 7 7 7 9 11 12 12 12 12 13 13 14 14 15 16 17 17 18 18 18 18 18 18 18 17 18

GFSWCAN_500_spd_219.txt.gz
Wind_Speed
40 40 38 38 42 46 47 45 42 46 35 32 30 29 24 19 10 9 13 15 15 14 13 12 14 16 20 12 2 1 3 8 13 6 9 13 11 17 14 17 22 34 41 41 40 43 49 47 49 42 45 46 51 60
39 38 39 42 48 47 45 40 35 35 26 33 31 25 21 8 7 11 13 15 14 12 11 10 12 15 11 2 3 2 4 10 12 8 5 3 5 4 7 18 25 25 39 38 43 44 47 50 53 50 43 50 47 59
36 37 42 45 46 45 43 35 27 29 29 33 29 19 3 2 10 10 12 13 12 11 7 8 10 13 3 4 4 2 6 8 9 10 8 6 7 8 7 16 28 18 28 39 46 46 49 53 51 50 57 55 53 51
34 41 46 47 42 42 40 29 26 24 30 28 20 6 3 8 8 10 10 9 10 7 4 6 7 11 4 8 5 10 10 9 13 14 15 10 7 15 16 14 24 28 25 31 45 46 50 51 56 53 54 56 52 50
39 43 45 44 41 35 33 27 23 27 24 20 15 6 8 6 7 7 7 8 6 6 3 4 5 7 6 11 8 12 12 15 13 15 10 10 8 8 11 18 15 23 36 41 39 40 49 45 55 58 53 48 38 58
41 45 41 38 35 33 31 31 31 22 19 19 7 6 6 5 5 3 5 5 5 6 4 4 4 7 8 9 7 11 12 7 6 11 11 10 10 6 6 11 17 17 27 43 43 38 40 47 47 57 61 55 45 45
39 37 35 35 31 28 24 23 20 19 21 9 6 7 5 4 3 4 5 5 5 5 4 2 2 4 5 9 8 4 6 6 6 11 16 16 7 8 11 10 10 13 15 36 48 47 43 44 47 47 52 58 50 47
34 32 31 29 26 23 22 18 18 16 12 7 7 6 5 5 4 6 5 4 4 4 4 5 5 6 5 6 6 5 4 8 13 11 17 19 7 7 10 14 15 16 18 22 34 39 42 46 49 51 46 45 48 52
28 28 28 26 25 23 19 17 19 9 4 5 6 6 6 5 5 5 6 6 6 5 5 4 5 3 7 6 5 7 8 9 12 14 16 18 13 8 9 13 13 12 16 20 25 33 39 41 43 53 53 49 44 43
26 26 26 24 22 17 12 16 10 4 3 6 7 6 7 7 7 5 6 7 8 7 7 5 5 8 8 6 6 6 6 7 10 13 18 19 15 15 10 15 12 13 14 27 31 28 31 35 45 47 54 50 48 45
24 24 23 19 13 10 4 9 6 5 6 7 7 7 8 9 9 9 7 9 11 11 8 8 8 8 6 6 7 8 9 8 11 13 19 18 18 18 15 11 10 11 11 14 21 26 24 34 36 44 51 50 47 45
20 19 15 5 6 7 3 3 2 2 3 5 7 8 10 10 10 11 11 10 11 12 12 10 11 11 9 10 9 10 9 10 12 13 16 20 19 17 14 9 11 11 7 7 11 17 19 35 40 42 46 44 42 40
14 6 4 3 2 3 2 1 2 4 5 6 6 7 8 9 10 11 13 13 12 12 12 11 10 10 12 13 13 12 11 13 14 14 16 22 17 14 15 13 8 7 7 5 10 9 14 24 35 38 44 50 45 44
3 2 1 1 3 5 6 5 5 6 7 8 10 11 12 12 12 12 11 12 13 13 11 12 13 11 12 12 12 16 17 17 17 19 20 21 16 18 16 14 13 4 5 4 2 3 8 18 23 38 54 57 34 35
3 4 4 4 6 7 8 10 11 11 11 12 12 13 13 12 12 15 14 17 15 15 16 19 20 18 19 18 16 18 23 23 20 20 20 18 16 17 16 15 12 13 5 4 6 5 7 16 20 30 55 41 32 42
5 5 6 7 9 10 12 13 14 15 14 15 15 15 15 15 13 18 22 16 13 16 18 21 21 22 22 21 17 18 21 22 23 22 21 20 18 17 19 19 16 11 9 5 5 8 13 16 15 40 38 35 36 34
5 6 8 10 12 14 15 15 16 16 17 18 18 19 20 20 19 20 22 21 18 16 19 20 17 20 19 20 20 21 25 23 22 18 18 19 20 20 22 22 18 16 11 6 5 8 11 15 19 23 22 26 37 38
7 9 11 11 14 17 18 17 17 19 20 20 21 20 19 22 24 25 29 30 17 18 17 14 13 14 16 19 19 19 26 22 16 20 20 20 22 22 23 23 20 19 21 14 10 8 8 15 18 20 20 24 28 30
11 12 12 14 17 15 13 13 14 15 13 15 15 14 12 12 11 13 18 17 12 6 11 14 15 12 15 10 11 13 17 16 19 21 21 21 21 21 25 26 22 20 22 24 17 13 13 12 13 20 25 25 26 27
10 11 12 14 14 12 9 12 8 10 13 12 10 8 9 10 12 14 15 14 9 5 10 10 12 14 15 15 14 13 12 18 22 24 25 24 22 21 19 18 20 23 25 24 24 26 20 18 19 18 18 21 28 29
10 12 13 13 13 13 12 10 9 8 10 9 9 10 11 13 14 13 11 9 7 5 6 7 10 11 9 8 13 19 18 20 19 13 12 12 11 11 12 15 18 21 24 25 27 27 30 27 26 25 23 23 22 23
11 11 11 13 14 16 14 13 12 10 10 12 13 12 11 11 10 9 8 6 6 7 7 10 8 7 7 7 8 9 8 6 7 9 9 9 7 5 7 10 13 15 18 21 25 28 30 30 29 30 32 30 27 25
12 12 13 14 14 16 18 18 18 17 16 16 15 13 12 11 9 6 5 6 6 6 6 5 5 5 6 7 7 7 7 9 9 9 9 9 11 12 12 12 13 15 19 21 23 23 26 27 27 30 34 36 35 34
14 15 15 9 8 21 18 18 18 18 18 18 16 15 14 12 10 9 8 7 7 6 7 7 8 9 7 6 5 6 7 9 9 9 10 10 10 11 10 9 11 14 15 14 12 14 15 16 18 22 24 28 32 37
15 15 15 16 14 13 14 15 17 17 18 19 18 17 15 12 9 11 11 10 9 8 7 8 8 7 6 6 6 7 8 9 10 10 11 11 10 10 8 9 10 11 12 12 11 10 8 10 13 15 18 21 25 29
12 11 11 9 10 12 13 15 17 19 19 21 20 16 14 13 14 12 9 8 7 7 8 9 8 9 8 6 8 9 10 10 10 10 11 12 12 11 10 10 11 11 9 9 8 8 7 5 3 5 9 12 16 19
8 9 10 12 13 14 15 16 18 19 20 20 19 21 20 18 15 13 11 9 7 6 6 7 9 8 8 8 8 9 10 10 10 11 11 12 12 12 12 12 12 12 13 13 12 11 12 12 12 10 8 4 0 3
7 8 9 10 11 12 13 14 15 16 18 19 20 20 18 16 15 14 12 11 9 7 7 7 7 8 7 7 8 10 11 12 13 13 13 12 13 14 14 14 15 15 16 15 14 14 15 16 16 16 15 15 15 13
6 7 8 9 10 12 14 16 17 18 19 18 18 18 21 22 19 15 12 10 9 8 6 5 7 8 9 8 8 10 12 11 12 14 14 15 15 16 16 17 18 20 20 18 19 20 21 21 21 20 20 19 19 18
5 6 7 9 10 12 13 15 16 18 19 21 21 19 20 20 21 22 20 16 10 10 9 8 6 6 8 9 9 9 10 12 13 15 15 16 16 15 15 16 16 16 18 20 21 22 23 22 21 20 19 19 19 19
6 7 8 9 10 12 13 15 16 17 17 19 20 21 20 19 20 21 21 20 18 10 11 9 7 6 7 8 9 11 11 12 13 15 16 16 15 15 16 17 16 17 19 19 18 19 19 20 21 22 22 22 22 21
7 7 8 9 10 11 12 14 14 15 14 15 17 18 20 21 20 20 21 21 20 15 11 13 11 9 7 7 8 10 12 12 12 12 13 14 15 15 15 16 17 17 17 18 17 18 19 19 19 19 19 19 19 19
7 9 10 11 13 14 14 14 13 12 12 12 14 16 18 20 20 20 20 20 19 16 15 14 13 10 9 8 8 8 9 10 11 11 12 12 13 13 14 15 16 16 16 17 18 18 18 19 19 19 19 19 18 18

GFSWCAN_500_spd_222.txt.gz
Wind_Speed
41 39 40 38 34 38 42 44 42 36 31 26 24 24 32 28 18 7 9 12 11 9 14 14 10 8 13 9 3 3 1 3 5 10 14 16 12 11 8 12 19 46 43 44 43 43 45 47 51 46 46 51 55 48
42 40 39 37 36 39 44 43 41 34 28 26 25 25 27 23 11 8 11 11 8 10 11 9 6 9 12 6 8 8 5 2 6 9 12 14 15 11 12 17 21 28 39 45 47 45 46 44 50 49 60 61 56 52
43 42 38 38 38 41 45 43 37 31 27 27 24 26 22 19 6 9 10 11 8 7 7 5 6 9 7 8 8 9 8 8 9 11 13 16 19 18 4 8 17 22 32 41 46 46 44 42 49 54 58 65 61 54
43 45 41 36 37 42 40 39 33 27 25 26 26 19 22 9 9 10 8 7 7 4 4 4 5 6 6 10 12 11 11 11 13 14 15 14 15 17 8 6 35 17 21 33 40 42 44 43 46 54 54 48 52 60
43 50 40 33 35 37 37 33 29 22 21 21 17 18 17 8 10 9 6 7 4 5 7 4 6 4 4 9 15 15 13 13 14 10 10 12 11 13 12 11 14 19 18 26 37 35 42 47 45 50 54 55 56 52
42 50 33 29 34 33 31 28 24 21 18 13 15 13 10 10 9 8 6 4 3 6 8 6 6 4 2 7 7 7 9 8 6 6 11 14 9 8 11 10 14 19 18 28 30 32 37 44 48 48 54 54 55 57
41 39 22 28 30 30 27 24 22 16 13 11 10 13 10 10 9 8 5 4 6 7 7 8 7 6 4 3 4 4 3 2 3 5 10 16 10 5 10 12 15 18 22 23 27 37 41 40 44 47 48 54 57 57
31 19 20 25 27 26 25 23 17 10 12 7 10 7 9 9 8 7 4 6 8 8 6 7 8 7 7 6 5 3 2 5 5 6 9 14 11 7 9 13 17 17 19 22 26 37 46 45 43 48 49 47 54 60
16 18 21 23 23 23 23 16 10 6 7 7 5 6 7 8 6 5 6 9 9 8 8 7 9 9 7 7 6 5 7 8 8 9 11 15 10 13 13 14 17 20 21 21 26 27 41 46 46 46 49 49 48 49
18 18 20 20 20 19 12 6 4 8 3 2 3 4 5 7 7 6 7 8 10 10 8 8 10 10 9 8 8 8 9 10 10 10 11 11 14 18 17 13 13 16 17 17 20 23 27 39 44 48 48 51 50 49
17 17 16 16 13 4 6 9 8 4 4 6 8 9 7 5 7 9 8 9 11 11 12 9 10 10 7 8 9 9 11 11 12 12 13 12 15 15 18 16 11 11 12 15 20 25 25 28 36 40 46 52 55 56
14 13 9 0 9 9 6 3 2 2 3 3 6 8 8 8 8 9 10 11 11 13 14 14 13 13 11 10 9 10 12 14 13 14 14 14 17 12 15 18 18 13 16 13 11 18 24 34 36 35 38 49 51 53
7 1 5 4 3 3 3 2 3 4 5 5 5 6 6 6 7 7 9 11 12 13 13 15 15 13 12 11 12 14 16 15 15 16 14 16 15 11 11 13 17 17 10 8 9 12 17 24 35 35 34 39 46 46
3 4 2 0 2 4 7 6 7 7 6 7 7 8 9 10 10 11 11 11 11 11 14 16 16 16 15 15 14 13 14 15 20 19 17 19 17 13 9 9 11 16 13 9 7 8 9 17 22 25 34 38 40 41
4 2 3 4 6 7 8 10 11 12 12 12 12 11 11 9 7 15 16 19 16 14 15 16 16 14 14 18 20 21 21 23 22 20 21 21 22 22 16 12 10 9 11 12 11 10 10 14 15 15 30 35 36 41
2 5 6 8 9 10 12 13 13 14 15 15 14 14 14 14 14 16 17 16 18 23 20 21 19 20 23 27 23 22 24 21 17 18 20 23 23 22 19 17 14 12 9 8 10 8 6 8 13 19 21 31 34 48
5 7 9 11 12 12 14 16 17 17 18 17 16 16 17 18 18 17 20 16 19 21 17 16 18 19 19 20 19 20 21 23 21 25 26 24 19 17 18 20 17 13 12 10 9 9 9 9 4 10 22 25 26 45
8 10 10 11 12 16 13 13 10 10 10 13 16 17 18 17 17 16 8 16 22 18 14 12 12 15 16 15 13 17 20 19 17 16 14 13 13 12 13 17 18 17 14 11 8 10 10 9 11 8 10 23 27 38
8 9 10 12 12 11 11 11 12 9 11 13 12 9 9 9 11 11 11 16 15 11 8 7 13 14 16 10 9 5 10 11 13 13 13 16 17 16 18 19 19 19 19 16 14 12 12 13 13 9 11 14 19 26
8 9 10 11 12 12 12 11 12 11 10 9 9 10 10 10 10 9 6 7 6 5 2 7 10 12 16 10 5 4 7 14 16 17 20 16 15 17 17 20 21 21 17 15 14 16 17 18 19 17 16 17 22 28
9 10 11 11 13 16 15 14 12 12 12 13 14 14 13 13 10 8 6 3 2 2 1 2 5 7 6 7 6 8 12 14 14 16 11 10 10 10 10 11 11 11 12 12 8 12 17 19 22 25 23 23 22 21
9 10 14 14 17 18 17 17 16 15 14 14 13 12 11 10 9 7 6 5 5 5 6 9 8 7 6 5 5 5 5 5 7 9 9 10 9 8 8 9 10 12 14 18 19 18 18 16 20 25 27 29 28 26
12 13 14 13 14 14 16 17 19 21 21 19 16 14 13 12 11 9 7 6 5 5 5 5 5 4 3 2 2 3 4 6 7 8 7 8 9 10 11 11 12 11 13 15 19 21 22 24 24 22 27 31 34 33
13 11 14 10 15 15 18 21 20 19 22 20 18 17 15 13 12 10 10 9 8 7 7 6 5 6 6 6 6 6 6 6 6 6 7 8 8 7 7 8 9 11 12 13 14 16 17 17 17 16 20 26 30 35
10 10 11 13 13 15 16 16 17 16 18 21 21 20 17 15 10 8 9 9 9 9 9 11 10 7 5 4 4 6 6 7 9 10 10 9 8 9 8 8 9 10 11 10 11 12 13 12 10 12 14 18 21 25
9 10 11 12 12 13 13 15 17 18 18 18 18 16 12 11 12 12 11 9 9 9 9 9 6 6 4 6 9 9 9 9 9 10 11 11 10 10 9 9 10 10 10 9 8 9 9 7 5 4 6 9 13 16
7 8 9 10 11 13 14 15 16 17 18 19 20 20 18 17 15 13 12 10 8 7 8 8 7 7 7 8 9 10 11 10 11 11 12 14 13 12 12 13 12 11 11 12 11 11 11 12 12 11 9 6 2 2
7 7 9 10 11 13 15 16 18 20 20 20 19 20 21 19 16 12 10 10 9 7 8 8 9 10 10 11 11 12 13 12 12 13 14 14 15 16 17 17 17 18 19 18 17 17 16 16 16 16 16 16 16 15
7 7 8 9 11 12 14 15 16 18 20 21 18 18 18 19 19 19 14 9 10 8 6 8 9 8 8 9 9 10 12 13 11 12 13 15 17 18 18 18 18 18 20 19 18 19 20 20 19 19 19 18 17 17
6 7 8 9 11 12 14 15 16 17 18 19 21 20 18 19 20 20 18 11 11 11 8 6 7 8 10 10 10 10 11 11 12 12 14 15 16 16 17 18 18 18 19 20 20 21 21 22 22 22 20 20 19 19
8 8 8 9 10 12 13 14 14 14 14 17 18 20 20 19 20 20 18 16 13 15 12 10 9 10 10 11 11 12 12 13 14 15 17 17 17 18 18 18 18 16 17 20 20 20 20 20 19 19 18 19 19 19
8 9 10 11 13 14 14 14 13 12 11 13 16 18 20 20 21 21 19 17 17 16 14 12 11 10 10 10 11 13 13 13 13 14 15 16 16 17 18 18 19 21 21 20 19 19 20 20 20 21 20 19 19 19
10 11 12 13 14 14 14 13 11 9 8 9 12 15 18 20 20 19 18 17 16 16 15 13 12 11 11 11 11 11 12 12 12 12 13 13 14 15 16 16 17 17 17 17 17 18 18 18 18 18 17 17 17 17